Simultaneous Nadir Overpasses (SNOs) Predictions

Prediction of SNOs between GOES-14 and AQUA Satellite Orbit:

Table of predicted SNOs for the next 14.0 days since TLE Epoch: 5/21/2022
Index Date Time (GOES-14) GOES-14 Lat,Lon AQUA Lat,Lon Distance(km) Time Diff (sec)
1 05/22/2022 08:34:02 0.04,-104.43 -0.14,-103.66 87.93 80
2 05/22/2022 20:55:22 -0.01,-104.64 -0.92,-108.84 477.38 80
3 05/24/2022 08:21:32 0.04,-104.44 -0.80,-100.62 435.10 80
4 05/24/2022 20:42:52 -0.02,-104.65 -0.25,-105.80 130.42 80
5 05/26/2022 20:27:41 -0.02,-104.66 0.40,-102.76 216.98 80
6 05/27/2022 08:48:51 -0.00,-104.45 0.73,-107.88 390.55 80
7 05/29/2022 08:36:19 -0.00,-104.46 0.11,-104.83 42.77 80
8 05/31/2022 08:26:28 -0.00,-104.47 -0.60,-101.79 305.24 80
9 05/31/2022 20:47:47 0.03,-104.70 -0.47,-106.97 257.93 80
10 06/02/2022 20:32:34 0.02,-104.71 0.17,-103.91 90.04 80
